Location: Colebrook
(42.0017°N, 73.0973°W)
Time: 08:44:43
(UTC-04:00)

Amateur Radio Satellites - All Passes

Search period start: 23 July 2017 08:14
Search period end: 24 July 2017 08:14
Location: Colebrook, 42.0017°N, 73.0973°W

Satellite Date Start Highest point End Downlink Frequencies (MHz)
Time Altitude Azimuth
CUTE 1.7 + AOD 2 23 Jul 08:19:15 08:23:31 88° 293° (WNW) 08:27:47 437.475
XW-2D 23 Jul 08:23:39 08:25:02 12° 296° (WNW) 08:26:25 145.860 - 145.880
SEEDS 23 Jul 08:35:53 08:40:07 89° 102° (ESE) 08:44:21 437.485
UWE-3 23 Jul 08:38:09 08:42:10 42° 98° (E) 08:46:05 435.000/436.395/437.385
YUBILEINY 23 Jul 08:40:47 08:45:58 17° 284° (WNW) 08:51:08 435.215
UNISAT 6 23 Jul 08:53:04 08:56:14 19° 65° (ENE) 08:59:23 437.425
ZACube-1 23 Jul 08:57:03 09:00:56 37° 97° (E) 09:04:45 437.345
HO-68 23 Jul 09:00:53 09:07:54 61° 291° (WNW) 09:14:53 435.675
CUTE-I 23 Jul 09:06:06 09:08:36 13° 302° (WNW) 09:11:06 437.470
M-CUBED/EXP-1 PRIME 23 Jul 09:07:54 09:09:53 14° 57° (ENE) 09:11:55 437.505
FO-29 23 Jul 09:10:04 09:17:28 60° 70° (ENE) 09:25:13 435.910
SO-50 23 Jul 09:10:31 09:12:52 14° 323° (NW) 09:15:12 436.795
CUBEBUG 2 23 Jul 09:11:45 09:15:52 45° 288° (WNW) 09:19:52 437.445
XW-2A 23 Jul 09:25:55 09:28:13 18° 292° (WNW) 09:30:31 145.665 - 145.685
AAUSAT CUBESAT 2 23 Jul 09:26:23 09:30:26 53° 287° (WNW) 09:34:30 437.432
Oscar 11 23 Jul 09:27:01 09:31:16 55° 100° (E) 09:35:30 .
PRISM 23 Jul 09:30:10 09:33:50 33° 70° (ENE) 09:37:34 437.425
TIGRISAT 23 Jul 09:36:28 09:40:54 45° 72° (ENE) 09:45:17 435.000
AO-73 23 Jul 09:38:27 09:42:37 81° 281° (WNW) 09:46:43 145.935
EO-88 23 Jul 10:13:58 10:17:05 26° 96° (E) 10:20:12 145.990 - 145.960
UWE-3 23 Jul 10:15:33 10:18:16 17° 295° (WNW) 10:20:58 435.000/436.395/437.385
AIST 2D 23 Jul 10:19:39 10:21:20 13° 66° (ENE) 10:23:03 435.315
UNISAT 6 23 Jul 10:28:03 10:32:34 48° 261° (W) 10:37:02 437.425
ZACube-1 23 Jul 10:34:02 10:36:57 19° 294° (WNW) 10:39:50 437.345
M-CUBED/EXP-1 PRIME 23 Jul 10:40:25 10:43:51 46° 256° (WSW) 10:47:34 437.505
DELFI C3 23 Jul 10:48:30 10:52:29 67° 285° (WNW) 10:56:27 145.870
NO-84 23 Jul 10:50:12 10:50:25 10° 122° (ESE) 10:50:39 435.350 FM
HO-68 23 Jul 10:51:31 10:54:12 12° 311° (NW) 10:56:52 435.675
FO-29 23 Jul 10:56:23 11:02:50 30° 268° (W) 11:09:33 435.910
Oscar 11 23 Jul 11:04:37 11:06:57 14° 296° (WNW) 11:09:15 .
PRISM 23 Jul 11:06:12 11:09:12 20° 266° (W) 11:12:13 437.425
TIGRISAT 23 Jul 11:14:31 11:17:45 19° 267° (W) 11:21:00 435.000
POLYITAN 1 23 Jul 11:17:27 11:21:19 33° 70° (ENE) 11:25:09 437.675
DUCHIFAT 1 23 Jul 11:18:27 11:22:03 28° 69° (ENE) 11:25:39 145.980
QB50P2 23 Jul 11:30:01 11:34:09 50° 73° (ENE) 11:38:18 145.880/145.840
EO-79 23 Jul 11:42:44 11:46:57 64° 74° (ENE) 11:51:11 145.935-145.965
NANOSAT C BR1 23 Jul 11:44:11 11:48:22 60° 74° (ENE) 11:52:34 145.865
EO-88 23 Jul 11:47:56 11:50:36 19° 292° (WNW) 11:53:15 145.990 - 145.960
ESTCUBE 1 23 Jul 11:49:42 11:53:46 32° 96° (E) 11:57:49 437.505/2401.250
AIST 2D 23 Jul 11:50:58 11:54:13 37° 262° (W) 11:57:29 435.315
BUGSAT 1 23 Jul 11:56:00 11:59:14 21° 67° (ENE) 12:02:28 437.445
LO-87 23 Jul 11:58:12 12:01:49 70° 100° (E) 12:05:23 145.935 - 145.965
Oscar 19 23 Jul 12:08:38 12:11:37 16° 60° (ENE) 12:14:35 437.125/150
SPROUT 23 Jul 12:16:04 12:18:35 15° 91° (E) 12:21:06 437.525
Gurwin Techsat 1B 23 Jul 12:18:55 12:21:21 13° 58° (ENE) 12:23:47 435.225
NO-84 23 Jul 12:24:13 12:27:17 67° 320° (NW) 12:30:38 435.350 FM
PCSat 23 Jul 12:42:53 12:44:08 11° 33° (NNE) 12:45:24 145.827
VELOX 1 23 Jul 12:44:34 12:48:23 27° 96° (E) 12:52:10 145.980
POLYITAN 1 23 Jul 12:53:51 12:57:08 21° 266° (W) 13:00:26 437.675
DUCHIFAT 1 23 Jul 12:54:06 12:57:40 26° 265° (W) 13:01:13 145.980
AO-7 23 Jul 12:54:13 12:57:16 12° 42° (NE) 13:00:20 .
DX 1 23 Jul 12:58:43 13:00:01 11° 90° (E) 13:01:19 434.975-435.025
AO-85 23 Jul 13:00:28 13:04:12 38° 117° (ESE) 13:07:52 145.980
QB50P2 23 Jul 13:07:54 13:10:13 14° 269° (W) 13:12:33 145.880/145.840
50 SAT 23 Jul 13:20:01 13:22:53 24° 96° (E) 13:25:44 437.505
EO-79 23 Jul 13:21:49 13:23:07 11° 270° (W) 13:24:25 145.935-145.965
NANOSAT C BR1 23 Jul 13:22:47 13:24:26 12° 270° (W) 13:26:05 145.865
BEESAT 3 23 Jul 13:23:17 13:27:14 67° 120° (ESE) 13:31:15 437.485
ESTCUBE 1 23 Jul 13:26:43 13:30:25 25° 293° (WNW) 13:34:06 437.505/2401.250
BUGSAT 1 23 Jul 13:30:30 13:34:22 34° 263° (W) 13:38:15 437.445
UKube-1 23 Jul 13:43:39 13:47:08 23° 95° (E) 13:50:36 .
Oscar 19 23 Jul 13:45:14 13:50:20 70° 258° (WSW) 13:55:28 437.125/150
SPROUT 23 Jul 13:50:38 13:54:44 46° 288° (WNW) 13:58:48 437.525
Gurwin Techsat 1B 23 Jul 13:55:12 14:00:31 89° 255° (WSW) 14:05:53 435.225
ITAMSAT 1 23 Jul 13:56:33 13:58:51 13° 58° (ENE) 14:01:09 435.822/435.867
BEESAT 2 23 Jul 13:58:33 14:02:25 53° 119° (ESE) 14:06:22 435.950
NO-84 23 Jul 14:03:20 14:05:22 15° 342° (NNW) 14:07:30 435.350 FM
SO-50 23 Jul 14:18:39 14:21:28 16° 39° (NE) 14:24:15 436.795
VELOX 1 23 Jul 14:20:55 14:24:46 29° 292° (WNW) 14:28:36 145.980
PCSat 23 Jul 14:23:38 14:28:55 49° 55° (NE) 14:34:09 145.827
DX 1 23 Jul 14:32:15 14:36:38 68° 286° (WNW) 14:40:59 434.975-435.025
AO-7 23 Jul 14:40:07 14:48:05 52° 63° (ENE) 14:56:06 .
AO-85 23 Jul 14:41:39 14:44:42 21° 315° (NW) 14:47:44 145.980
ITUPSAT 1 23 Jul 14:45:26 14:46:38 11° 89° (E) 14:47:51 437.325
50 SAT 23 Jul 14:52:59 14:55:27 19° 292° (WNW) 14:57:55 437.505
BEESAT 3 23 Jul 15:02:48 15:05:14 15° 319° (NW) 15:07:41 437.485
UKube-1 23 Jul 15:19:19 15:23:10 32° 291° (WNW) 15:27:00 .
RS-15 23 Jul 15:20:05 15:30:49 39° 106° (ESE) 15:41:42 29.354- 29.394
ITAMSAT 1 23 Jul 15:32:17 15:37:32 90° 256° (WSW) 15:42:48 435.822/435.867
BEESAT 2 23 Jul 15:37:41 15:40:29 18° 317° (NW) 15:43:19 435.950
Gurwin Techsat 1B 23 Jul 15:39:59 15:41:11 11° 272° (W) 15:42:21 435.225
NO-84 23 Jul 15:43:12 15:44:09 11° 4° (N) 15:45:07 435.350 FM
MOZHAYETS 4 23 Jul 15:48:46 15:53:03 39° 98° (E) 15:57:17
SO-50 23 Jul 15:57:56 16:02:30 84° 238° (WSW) 16:07:05 436.795
O/OREOS (USA 219) 23 Jul 16:02:39 16:07:09 89° 286° (WNW) 16:11:39 437.305
PCSat 23 Jul 16:07:40 16:11:58 24° 253° (WSW) 16:16:14 145.827
BEESAT 23 Jul 16:08:16 16:13:03 82° 103° (ESE) 16:17:48 436.000
CUBESAT XI-V 23 Jul 16:19:13 16:22:11 17° 91° (E) 16:25:08 437.345
ITUPSAT 1 23 Jul 16:20:14 16:25:01 78° 285° (WNW) 16:29:45 437.325
AO-7 23 Jul 16:33:26 16:41:00 38° 262° (W) 16:48:39 .
KKS-1 23 Jul 16:44:39 16:47:19 15° 92° (E) 16:49:59 437.445
DOVE 4 23 Jul 16:54:37 16:59:01 35° 69° (ENE) 17:03:39 437.250
XW-2F 23 Jul 17:03:50 17:05:21 12° 65° (ENE) 17:06:53 145.980 - 146.000
CUTE-I 23 Jul 17:07:59 17:11:55 21° 62° (ENE) 17:15:51 437.470
ITAMSAT 1 23 Jul 17:16:36 17:17:41 11° 272° (W) 17:18:46 435.822/435.867
STARS 23 Jul 17:19:45 17:22:18 15° 92° (E) 17:24:50 437.465
NO-84 23 Jul 17:19:53 17:22:49 21° 25° (NNE) 17:25:54 435.350 FM
MOZHAYETS 4 23 Jul 17:26:30 17:29:57 22° 294° (WNW) 17:33:23
XW-2D 23 Jul 17:29:22 17:32:31 26° 70° (ENE) 17:35:41 145.860 - 145.880
RS-15 23 Jul 17:30:25 17:42:37 68° 309° (NW) 17:54:58 29.354- 29.394
XW-2B 23 Jul 17:39:08 17:42:29 32° 71° (ENE) 17:45:52 145.730 - 145.750
HO-68 23 Jul 17:44:06 17:49:17 22° 56° (NE) 17:54:28 435.675
O/OREOS (USA 219) 23 Jul 17:45:59 17:47:15 11° 311° (NW) 17:48:31 437.305
BEESAT 23 Jul 17:48:17 17:50:09 12° 301° (WNW) 17:51:59 436.000
YUBILEINY 23 Jul 17:49:10 17:55:27 22° 79° (E) 18:01:42 435.215
CUBESAT XI-V 23 Jul 17:55:18 17:59:50 51° 287° (WNW) 18:04:21 437.345
XW-2C 23 Jul 17:56:02 17:59:41 54° 75° (ENE) 18:03:22 145.795 - 145.815
NUDT-PHONESAT 23 Jul 18:11:03 18:14:41 61° 75° (ENE) 18:18:19 437.300
LilacSat-2 23 Jul 18:17:11 18:20:58 75° 259° (W) 18:24:44 437.200
KKS-1 23 Jul 18:19:49 18:24:10 51° 288° (WNW) 18:28:29 437.445
KAITUO 1B 23 Jul 18:22:42 18:26:24 89° 88° (E) 18:30:06 145.475/437.950
DOVE 4 23 Jul 18:32:39 18:36:44 27° 267° (W) 18:41:01 437.250
CUBEBUG 2 23 Jul 18:34:44 18:37:37 16° 64° (ENE) 18:40:27 437.445
XW-2F 23 Jul 18:35:27 18:39:03 48° 261° (W) 18:42:42 145.980 - 146.000
CUTE-I 23 Jul 18:46:16 18:51:31 55° 259° (W) 18:56:49 437.470
STARS 23 Jul 18:54:38 18:58:56 50° 288° (WNW) 19:03:10 437.465
NO-84 23 Jul 18:56:46 19:00:42 87° 223° (SW) 19:04:54 435.350 FM
XW-2D 23 Jul 19:03:48 19:06:41 21° 266° (W) 19:09:34 145.860 - 145.880
CUTE 1.7 + AOD 2 23 Jul 19:11:50 19:15:59 66° 75° (ENE) 19:20:09 437.475
XW-2B 23 Jul 19:14:17 19:16:45 17° 267° (W) 19:19:14 145.730 - 145.750
SEEDS 23 Jul 19:27:28 19:31:34 62° 74° (ENE) 19:35:41 437.485
HO-68 23 Jul 19:29:02 19:36:14 79° 255° (WSW) 19:43:27 435.675
XW-2C 23 Jul 19:33:49 19:34:11 10° 270° (W) 19:34:35 145.795 - 145.815
UWE-3 23 Jul 19:34:53 19:39:07 37° 71° (ENE) 19:43:16 435.000/436.395/437.385
YUBILEINY 23 Jul 19:42:21 19:51:12 78° 279° (W) 20:00:05 435.215
RS-15 23 Jul 19:47:41 19:58:00 29° 338° (NNW) 20:08:16 29.354- 29.394
ZACube-1 23 Jul 19:52:50 19:56:48 32° 70° (ENE) 20:00:42 437.345
XW-2A 23 Jul 19:56:13 19:59:32 50° 261° (W) 20:02:50 145.665 - 145.685
STRAND 1 23 Jul 20:01:47 20:06:45 48° 100° (E) 20:11:39 437.568
CUBEBUG 2 23 Jul 20:09:08 20:13:46 57° 260° (W) 20:18:21 437.445
AAUSAT CUBESAT 2 23 Jul 20:16:12 20:20:17 80° 257° (WSW) 20:24:25 437.432
Oscar 11 23 Jul 20:21:53 20:25:58 43° 72° (ENE) 20:30:03 .
ISS 23 Jul 20:25:15 20:25:22 10° 129° (SE) 20:25:31 437.550
AO-73 23 Jul 20:33:31 20:37:58 79° 76° (ENE) 20:42:19 145.935
NO-84 23 Jul 20:36:06 20:37:46 12° 236° (WSW) 20:39:27 435.350 FM
CUTE 1.7 + AOD 2 23 Jul 20:51:37 20:52:14 10° 271° (W) 20:52:52 437.475
EO-88 23 Jul 20:53:15 20:55:04 13° 65° (ENE) 20:56:52 145.990 - 145.960
nSIGHT-1 23 Jul 21:06:02 21:08:49 27° 136° (SE) 21:11:37 .
SEEDS 23 Jul 21:06:34 21:07:38 11° 271° (W) 21:08:43 437.485
Tancredo 1 23 Jul 21:08:01 21:10:56 79° 144° (SE) 21:13:53 437.200
UWE-3 23 Jul 21:12:07 21:15:38 22° 266° (W) 21:19:07 435.000/436.395/437.385
HO-68 23 Jul 21:21:51 21:25:00 13° 273° (W) 21:28:10 435.675
ZACube-1 23 Jul 21:29:28 21:33:04 24° 265° (W) 21:36:39 437.345
AO-85 23 Jul 21:30:21 21:34:18 39° 52° (NE) 21:38:29 145.980
DELFI C3 23 Jul 21:33:41 21:37:34 69° 75° (ENE) 21:41:31 145.870
BEESAT 3 23 Jul 21:39:43 21:43:33 43° 52° (NE) 21:47:20 437.485
STRAND 1 23 Jul 21:41:44 21:45:34 22° 297° (WNW) 21:49:24 437.568
YUBILEINY 23 Jul 21:44:20 21:49:36 17° 301° (WNW) 21:54:53 435.215
ISS 23 Jul 21:58:06 22:01:21 88° 145° (SE) 22:04:37 437.550
Oscar 11 23 Jul 21:59:33 22:02:18 17° 268° (W) 22:05:04 .
FO-29 23 Jul 22:05:21 22:12:21 50° 97° (E) 22:18:31 435.910
RS-15 23 Jul 22:06:15 22:16:00 26° 13° (NNE) 22:25:29 29.354- 29.394
BEESAT 2 23 Jul 22:15:48 22:19:36 36° 50° (NE) 22:23:20 435.950
UNISAT 6 23 Jul 22:19:32 22:23:26 32° 96° (E) 22:27:17 437.425
M-CUBED/EXP-1 PRIME 23 Jul 22:19:37 22:21:24 12° 95° (E) 22:23:11 437.505
EO-88 23 Jul 22:24:56 22:28:23 41° 262° (W) 22:31:50 145.990 - 145.960
LO-87 23 Jul 22:34:33 22:37:42 29° 71° (ENE) 22:40:54 145.935 - 145.965
nSIGHT-1 23 Jul 22:42:05 22:45:07 38° 333° (NNW) 22:48:11 .
Tancredo 1 23 Jul 22:44:24 22:46:38 19° 342° (NNW) 22:48:54 437.200
PRISM 23 Jul 22:45:35 22:49:40 52° 100° (E) 22:53:44 437.425
ESTCUBE 1 23 Jul 22:49:32 22:53:27 31° 69° (ENE) 22:57:24 437.505/2401.250
TIGRISAT 23 Jul 23:03:58 23:08:20 87° 283° (WNW) 23:12:35 435.000
SPROUT 23 Jul 23:10:24 23:12:30 13° 63° (ENE) 23:14:36 437.525
AO-85 23 Jul 23:11:10 23:14:30 22° 246° (WSW) 23:18:00 145.980
AIST 2D 23 Jul 23:16:25 23:18:21 14° 92° (E) 23:20:17 435.315
BEESAT 3 23 Jul 23:18:08 23:20:48 17° 249° (WSW) 23:23:24 437.485
ISS 23 Jul 23:35:36 23:38:10 21° 343° (NNW) 23:40:45 437.550
VELOX 1 23 Jul 23:42:09 23:45:48 26° 67° (ENE) 23:49:28 145.980
FO-29 23 Jul 23:50:47 23:57:01 32° 298° (WNW) 00:02:40 435.910
M-CUBED/EXP-1 PRIME 23 Jul 23:51:36 23:56:12 76° 290° (WNW) 00:00:51 437.505
BEESAT 2 23 Jul 23:54:01 23:57:07 21° 248° (WSW) 00:00:11 435.950
50 SAT 23 Jul 23:54:02 23:54:35 10° 64° (ENE) 23:55:08 437.505
DX 1 23 Jul 23:55:01 23:56:27 11° 60° (ENE) 23:57:53 434.975-435.025
UNISAT 6 23 Jul 23:56:34 23:59:58 23° 293° (WNW) 00:03:19 437.425
LO-87 24 Jul 00:08:39 00:11:10 18° 267° (W) 00:13:42 145.935 - 145.965
nSIGHT-1 24 Jul 00:20:06 00:22:11 16° 352° (N) 00:24:16 .
RS-15 24 Jul 00:20:18 00:32:13 54° 45° (NE) 00:43:30 29.354- 29.394
Tancredo 1 24 Jul 00:21:25 00:22:54 13° 2° (N) 00:24:22 437.200
PRISM 24 Jul 00:22:12 00:24:30 15° 297° (WNW) 00:26:49 437.425
ESTCUBE 1 24 Jul 00:26:33 00:30:15 25° 265° (W) 00:33:58 437.505/2401.250
O/OREOS (USA 219) 24 Jul 00:33:43 00:37:06 20° 56° (NE) 00:40:28 437.305
DUCHIFAT 1 24 Jul 00:36:48 00:40:50 45° 99° (E) 00:44:50 145.980
POLYITAN 1 24 Jul 00:36:57 00:41:07 58° 100° (E) 00:45:15 437.675
UKube-1 24 Jul 00:38:35 00:41:52 22° 66° (ENE) 00:45:10 .
SPROUT 24 Jul 00:43:39 00:47:53 60° 259° (W) 00:52:09 437.525
AIST 2D 24 Jul 00:48:31 00:51:39 32° 288° (WNW) 00:54:48 435.315
QB50P2 24 Jul 00:49:53 00:54:07 89° 288° (WNW) 00:58:19 145.880/145.840
EO-79 24 Jul 01:02:29 01:06:42 71° 285° (WNW) 01:10:52 145.935-145.965
NANOSAT C BR1 24 Jul 01:03:28 01:07:41 77° 285° (WNW) 01:11:51 145.865
BUGSAT 1 24 Jul 01:11:41 01:15:21 31° 97° (E) 01:18:57 437.445
ISS 24 Jul 01:13:31 01:15:32 15° 4° (N) 01:17:33 437.550
VELOX 1 24 Jul 01:18:13 01:22:07 30° 263° (W) 01:26:03 145.980
50 SAT 24 Jul 01:23:35 01:26:52 47° 260° (W) 01:30:11 437.505
DX 1 24 Jul 01:27:39 01:32:00 76° 257° (WSW) 01:36:24 434.975-435.025
M-CUBED/EXP-1 PRIME 24 Jul 01:29:26 01:29:50 10° 306° (NW) 01:30:14 437.505
BEESAT 24 Jul 01:40:38 01:42:26 12° 59° (ENE) 01:44:14 436.000
ITUPSAT 1 24 Jul 01:51:48 01:54:34 15° 61° (ENE) 01:57:18 437.325
Oscar 19 24 Jul 01:56:25 02:01:15 39° 98° (E) 02:06:05 437.125/150
Tancredo 1 24 Jul 01:56:34 01:59:05 24° 22° (NNE) 02:01:35 437.200
nSIGHT-1 24 Jul 01:57:10 01:59:31 18° 13° (NNE) 02:01:51 .
Gurwin Techsat 1B 24 Jul 02:11:16 02:16:08 35° 97° (E) 02:20:57 435.225
O/OREOS (USA 219) 24 Jul 02:12:27 02:16:41 42° 253° (WSW) 02:20:56 437.305
DUCHIFAT 1 24 Jul 02:13:32 02:16:07 16° 296° (WNW) 02:18:42 145.980
UKube-1 24 Jul 02:13:43 02:17:41 35° 262° (W) 02:21:39 .
POLYITAN 1 24 Jul 02:14:25 02:16:25 13° 297° (WNW) 02:18:23 437.675
RS-15 24 Jul 02:33:18 02:44:41 52° 250° (WSW) 02:55:30 29.354- 29.394
AO-7 24 Jul 02:43:58 02:47:41 13° 87° (E) 02:51:24 .
BUGSAT 1 24 Jul 02:47:23 02:50:31 22° 293° (WNW) 02:53:38 437.445
ISS 24 Jul 02:49:51 02:52:46 30° 23° (NNE) 02:55:42 437.550
MOZHAYETS 4 24 Jul 02:50:48 02:55:02 39° 71° (ENE) 02:59:18
BEESAT 24 Jul 03:14:44 03:19:30 84° 256° (WSW) 03:24:19 436.000
CUBESAT XI-V 24 Jul 03:23:09 03:26:10 18° 64° (ENE) 03:29:12 437.345
ITUPSAT 1 24 Jul 03:27:06 03:31:51 65° 258° (WSW) 03:36:37 437.325
Tancredo 1 24 Jul 03:31:45 03:34:37 47° 220° (SW) 03:37:28 437.200
nSIGHT-1 24 Jul 03:33:11 03:36:24 62° 32° (NNE) 03:39:36 .
Oscar 19 24 Jul 03:36:07 03:40:22 27° 295° (WNW) 03:44:38 437.125/150
KKS-1 24 Jul 03:43:15 03:46:01 16° 63° (ENE) 03:48:48 437.445
ITAMSAT 1 24 Jul 03:45:09 03:49:44 31° 96° (E) 03:54:16 435.822/435.867
Gurwin Techsat 1B 24 Jul 03:51:21 03:55:58 31° 294° (WNW) 04:00:34 435.225
YUBILEINY 24 Jul 04:00:30 04:01:38 10° 52° (NE) 04:02:46 435.215
STARS 24 Jul 04:16:55 04:19:32 16° 63° (ENE) 04:22:08 437.465
ISS 24 Jul 04:26:13 04:29:20 41° 221° (SW) 04:32:25 437.550
MOZHAYETS 4 24 Jul 04:28:53 04:32:19 21° 267° (W) 04:35:46
AO-7 24 Jul 04:33:24 04:41:48 74° 106° (ESE) 04:50:07 .
DOVE 4 24 Jul 04:56:03 04:56:52 10° 86° (E) 04:57:41 437.250
CUBESAT XI-V 24 Jul 04:58:42 05:03:08 50° 260° (W) 05:07:37 437.345
PCSat 24 Jul 05:05:40 05:10:42 40° 112° (ESE) 05:15:45 145.827
nSIGHT-1 24 Jul 05:10:29 05:12:28 15° 228° (SW) 05:14:27 .
KKS-1 24 Jul 05:17:46 05:22:08 53° 259° (W) 05:26:33 437.445
ITAMSAT 1 24 Jul 05:24:31 05:29:11 34° 293° (WNW) 05:33:48 435.822/435.867
STARS 24 Jul 05:51:03 05:55:24 55° 259° (W) 05:59:47 437.465
LilacSat-2 24 Jul 05:52:08 05:53:10 11° 90° (E) 05:54:12 437.200
YUBILEINY 24 Jul 05:52:16 06:00:51 54° 76° (ENE) 06:09:19 435.215
XW-2F 24 Jul 06:07:59 06:10:15 15° 92° (E) 06:12:32 145.980 - 146.000
SO-50 24 Jul 06:12:56 06:16:46 28° 114° (ESE) 06:20:36 436.795
AO-7 24 Jul 06:27:07 06:33:49 28° 306° (NW) 06:40:31 .
DOVE 4 24 Jul 06:29:58 06:35:17 87° 100° (E) 06:40:25 437.250
XW-2D 24 Jul 06:34:51 06:38:20 35° 97° (E) 06:41:48 145.860 - 145.880
XW-2B 24 Jul 06:44:46 06:48:24 45° 99° (E) 06:52:01 145.730 - 145.750
PCSat 24 Jul 06:49:21 06:54:10 32° 310° (NW) 06:59:02 145.827
HO-68 24 Jul 06:57:42 07:02:37 19° 91° (E) 07:07:30 435.675
CUTE 1.7 + AOD 2 24 Jul 06:58:29 06:59:44 11° 89° (E) 07:00:59 437.475
XW-2C 24 Jul 07:01:58 07:05:43 78° 101° (E) 07:09:29 145.795 - 145.815
CUTE-I 24 Jul 07:02:45 07:08:03 58° 101° (E) 07:13:18 437.470
NUDT-PHONESAT 24 Jul 07:14:31 07:18:12 82° 101° (ESE) 07:21:53 437.300
STRAND 1 24 Jul 07:17:48 07:22:56 72° 74° (ENE) 07:28:05 437.568
LilacSat-2 24 Jul 07:24:03 07:27:44 51° 286° (WNW) 07:31:25 437.200
KAITUO 1B 24 Jul 07:27:09 07:30:50 66° 286° (WNW) 07:34:33 145.475/437.950
XW-2F 24 Jul 07:41:04 07:44:30 35° 288° (WNW) 07:47:56 145.980 - 146.000
YUBILEINY 24 Jul 07:49:43 07:57:12 33° 276° (W) 08:04:39 435.215
SO-50 24 Jul 07:52:56 07:57:06 35° 311° (NW) 08:01:17 436.795
AAUSAT CUBESAT 2 24 Jul 07:58:56 08:01:27 15° 92° (E) 08:03:56 437.432
CUBEBUG 2 24 Jul 08:00:05 08:03:44 27° 95° (E) 08:07:19 437.445
DOVE 4 24 Jul 08:09:40 08:12:09 14° 301° (WNW) 08:14:37 437.250
XW-2D 24 Jul 08:09:52 08:12:14 16° 294° (WNW) 08:14:37 145.860 - 145.880
